www.pogodaiklimat.ru
ПОГОДА в Шаиме
Время
(UTC), дата
09 7.07
12 7.07
15 7.07
18 7.07
21 7.07
00 8.07
03 8.07
06 8.07
09 8.07
12 8.07
15 8.07
18 8.07
21 8.07
00 9.07
03 9.07
06 9.07
09 9.07
12 9.07
15 9.07
18 9.07
21 9.07
00 10.07
03 10.07
06 10.07
09 10.07
12 10.07
15 10.07
18 10.07
21 10.07
00 11.07
03 11.07
06 11.07
09 11.07
12 11.07
15 11.07
18 11.07
21 11.07
00 12.07
03 12.07
06 12.07
09 12.07
12 12.07
15 12.07
18 12.07
21 12.07
00 13.07
03 13.07
06 13.07
09 13.07
12 13.07
15 13.07
18 13.07
21 13.07
00 14.07
03 14.07
Ветер
(напр.,м/с)
Видим. Явления Облачность Т
(С)
Тd
(С)
f
(%)
Тe
(С)
Тes
(С)
Комфортность P
(гПа)
Po
(гПа)
Тmin
(С)
Tmax
(С)
R
(мм)
R24
(мм)
S
(см)
СЗ 2 10 км 6/4 1000 м
[Cu med, cong Ci fib]
+31.8 +9.9 26 +31 +38 жарко 1011.4 1005.5
СЗ 1 10 км 8/4 1000 м
[Cu med, cong Ci fib]
+30.2 +13.6 36 +32 +35 жарко 1011.9 1005.9
З 1 10 км 3/3 1000 м
[Cu med, cong]
+30.4 +12.3 33 +31 +32 жарко 1012.4 1006.4 +31.9
Ю 2 10 км ясно +23.5 +16.1 63 +27 +27 душно 1013.6 1007.5
Ю 2 10 км 8/0
[Ci fib]
+20.3 +15.1 72 +24 +24 комфорт 1014.7 1008.5
ЮЗ 2 4000 м дымка 3/0
[Ci fib]
+20.0 +15.4 75 +23 +23 комфорт 1015.7 1009.5
ЮЗ 2 10 км ясно +28.2 +15.6 46 +31 +36 душно 1016.1 1010.0 +19.0
ЮЗ 3-10
{10}
10 км 1/0
[Ci sp]
+32.5 +13.2 31 +33 +43 жарко 1015.7 1009.8
З 3
{10}
10 км 9/6 1000 м
[Cu med, cong Ci sp]
+33.1 +12.1 28 +33 +37 жарко 1015.0 1009.1
ЮЗ 3 10 км 6/4 1000 м
[Cu hum Ci sp]
+34.3 +11.4 25 +34 +37 очень
жарко
1014.6 1008.7
ЮЗ 2 10 км 3/3 1000 м
[Cu hum]
+32.4 +12.1 29 +33 +33 жарко 1014.3 1008.4 +34.8
ЮЗ 2 10 км 3/0
[Ci fib]
+25.0 +16.4 59 +28 +28 жарко 1014.4 1008.3
ЮЗ 2 10 км 4/0
[Ci fib]
+22.3 +16.1 68 +26 +26 жарко 1014.0 1007.9
ЮЗ 2 4000 м дымка 3/0
[Ci fib]
+20.5 +16.5 78 +24 +25 комфорт 1014.4 1008.2
СЗ 2 10 км 3/0
[Ci fib]
+27.4 +17.0 53 +31 +36 душно 1014.0 1007.9 +19.6
СЗ 3 10 км ясно +32.4 +14.0 33 +34 +44 очень
жарко
1013.3 1007.4
СЗ 3 10 км 3/3 1000 м
[Cu hum]
+34.4 +13.2 28 +35 +42 очень
жарко
1012.2 1006.3
З 3 10 км 3/3 1000 м
[Cu hum]
+34.9 +13.7 28 +36 +39 душно 1011.1 1005.3
З 3 10 км 10/0
[Ci fib]
+33.6 +14.1 31 +35 +35 душно 1009.8 1003.9 +35.2
штиль 0 10 км 10/0
[Cs]
+25.9 +18.0 62 +30 +30 душно 1010.9 1004.8
СВ 2 10 км 10/0
[Cs]
+22.7 +17.0 70 +27 +27 душно 1012.2 1006.1
В 1 10 км 10/0
[Ac trans Cs]
+20.4 +17.2 82 +25 +25 комфорт 1013.2 1007.0
В 2 10 км 4/3 1000 м
[Cu med, cong Ci fib]
+23.9 +15.2 58 +27 +30 жарко 1013.4 1007.3 +20.1
СВ 2 10 км 4/0
[Ci fib]
+27.5 +15.2 47 +30 +41 жарко 1013.0 1007.0
СВ 1 10 км 3/0
[Ci fib]
+30.3 +14.0 37 +32 +46 жарко 1012.4 1006.4
С 1 10 км 4/3 1000 м
[Cu hum Ci fib]
+31.3 +14.0 35 +33 +38 жарко 1011.1 1005.1
ЮВ 2 10 км 10/8 600 м
[Sc Ci fib]
+27.0 +16.9 54 +31 +31 душно 1010.1 1004.1 +31.5
ЮВ 2 10 км 10/6 600 м
[Sc Ac trans Ci fib]
+24.5 +14.6 54 +27 +27 жарко 1010.2 1004.1
Ю 2 10 км 6/4 600 м
[Sc Ci fib]
+22.0 +16.3 70 +26 +26 душно 1009.0 1002.9
Ю 2 10 км 8/6 600 м
[Sc Ac trans Ci fib]
+21.1 +16.2 74 +24 +25 комфорт 1007.8 1001.7
СЗ 2 10 км 10/0
[Ac trans Cs]
+26.2 +19.3 66 +32 +35 очень
душно
1006.9 1000.9 +20.5
СЗ 5-11
{11}
10 км гроза без осадков 10/4 600 м
[Cb cap Ac trans Cs]
+30.7 +15.1 39 +33 +35 душно 1007.0 1001.1
СЗ 6-11
{12}
10 км {гроза} 10/6 600 м
[Cb cap Ac trans Cs]
+29.2 +15.7 44 +32 +33 душно 1006.8 1000.8
СЗ 6-12
{12}
10 км {гроза} 9/5 600 м
[Cb cap Ci sp]
+27.2 +13.9 44 +29 +30 жарко 1007.3 1001.3
СЗ 5-12
{14}
10 км 6/3 600 м
[Sc diur, vesp Ci sp]
+24.5 +10.0 40 +25 +26 комфорт 1009.5 1003.4 +30.7
З 3
{13}
10 км 3/3 600 м
[Sc]
+20.9 +10.1 50 +23 +23 комфорт 1011.4 1005.2
СЗ 4 10 км 4/0
[Ci fib]
+18.9 +9.9 56 +20 +20 1012.3 1006.1
СЗ 2 10 км 4/0
[Ac trans Ci fib]
+17.8 +9.9 60 +18 +19 1014.1 1007.9
СЗ 2 10 км 3/0
[Ac trans Ci fib]
+20.6 +9.8 50 +23 +27 комфорт 1014.7 1008.5 +17.4
З 3 10 км 10/8 1000 м
[Cu med, cong Ci sp]
+25.7 +6.3 29 +25 +27 комфорт 1014.2 1008.1
З 5 10 км 6/6 1000 м
[Cu hum]
+27.1 +4.2 23 +26 +29 жарко 1013.7 1007.7
З 3
{10}
10 км 4/3 1000 м
[Cu hum Cc]
+28.0 +6.1 25 +27 +30 жарко 1012.3 1006.3
ЮЗ 3 10 км 3/0
[Ci fib]
+27.0 +8.4 31 +27 +27 жарко 1010.7 1004.7 +28.5
ЮЗ 3 10 км 4/0
[Ac trans Ci fib]
+21.0 +10.2 50 +23 +23 комфорт 1010.4 1004.3
ЮЗ 4 10 км 3/0
[Ac trans]
+21.3 +10.5 50 +23 +23 комфорт 1009.5 1003.4
ЮЗ 3 10 км 3/0
[Ci fib]
+20.8 +11.9 57 +23 +24 комфорт 1010.0 1003.9
СЗ 4 10 км 3/0
[Ci fib]
+23.8 +11.1 45 +25 +28 комфорт 1011.0 1004.9 +20.1
З 5-10
{10}
10 км 8/0
[Ci fib]
+25.3 +7.4 32 +25 +31 комфорт 1011.5 1005.4
З 4
{12}
10 км 6/0
[Ci fib]
+26.8 +6.3 27 +26 +34 жарко 1012.6 1006.5
СЗ 3
{12}
10 км 6/6 1000 м
[Cu hum]
+27.1 +7.1 28 +27 +29 жарко 1013.6 1007.5
С 3 10 км 3/3 1000 м
[Cu hum]
+24.1 +10.7 43 +25 +26 комфорт 1014.9 1008.8 +27.6
С 1 10 км 4/0
[Ci fib]
+18.0 +10.4 61 +19 +19 1016.8 1010.6
штиль 0 10 км 4/0
[Ci fib]
+14.1 +9.5 74 +14 +14 1018.4 1012.1
С 1 10 км 10/0
[Ac trans Ci fib]
+14.3 +9.1 71 +15 +15 1020.2 1013.9
ЮВ 2 4000 м мгла 8/4 600 м
[Sc Ac trans Ci fib]
+18.8 +12.3 66 +20 +22 1021.0 1014.8 +13.7
Местоположение метеостанции Шаим (Ханты-Мансийский АО, Россия): широта 60.32 долгота 64.22 высота над уровнем моря 53 м.
В архиве по умолчанию представлена погода в Шаиме за последнюю неделю. Архивные данные за месяц целиком и за предыдущие месяцы, начиная с января 2011 года, Вы можете получить, выбрав интересующий диапазон дат из раскрывающегося списка и нажав кнопку "Найти!".
*Определитесь, кто Вы:
Внимание! Время в таблицах - всемирное. Для получения местного времени необходимо прибавить поправку, которая равна 5 ч.
Смотрите также архив погоды в соседних городах и на ближайших метеорологических станциях:
Партнеры нашего сайта:      
Пояснения к столбцам:
  • Ветер - указаны скорость ветра в м/с - средняя за 10 мин, порывы в срок и между сроками (в фигурных скобках) и направление, откуда дует ветер: С - северный,
  • СВ - северо-восточный, В - восточный, ЮВ - юго-восточный, Ю - южный, ЮЗ - юго-западный, З - западный, СЗ - северо-западный.
  • Видимость - горизонтальная дальность видимости в метрах или километрах. При видимости от 1 до 10 км при отсутствии осадков обычно наблюдается дымка, при ухудшении видимости до 1 км и менее - туман. В сухую погоду видимость может ухудшаться дымом, пылью или мглою.
  • Явления - указаны атмосферные явления, наблюдавшиеся в срок или в последний час перед сроком; фигурными скобками обозначены явления, наблюдавшиеся между сроками (за 1-3 часа до срока); квадратными скобками обозначены град или гололедные отложения с указанием их диаметра в мм.
  • Облачность - указаны через наклонную черту общая и нижняя облачность в баллах и высота нижней границы облаков в метрах; квадратными скобками обозначены формы облаков: Ci - перистые, Cs - перисто-слоистые, Cc - перисто-кучевые, Ac - высококучевые, As - высокослоистые, Sc - слоисто-кучевые, Ns - слоисто-дождевые, Cu - кучевые, Cb - кучево-дождевые. Подробнее классификацию облаков см. в Атласе облаков (PDF).
  • T - Температура воздуха - температура, измеренная на высоте 2 м над землей.
  • Td - Температура точки росы - температура, при понижении до которой содержащийся в воздухе водяной пар достигнет насыщения.
  • f - Относительная влажность воздуха - влажноcть воздуха, измеренная на высоте 2 м над землей.
  • Te - Эффективная температура - температура, которую ощущает одетый по сезону человек в тени. Характеристика душности погоды. При расчете учитывается влияние влажности воздуха и скорости ветра на теплоощущения человека.
  • Tes - Эффективная температура на солнце - температура, которую ощущает человек, с поправкой на солнечный нагрев. Характеристика знойности погоды. Зависит от высоты солнца над горизонтом, облачности и скорости ветра. Ночью, в пасмурную погоду, а также при ветре 12 м/с и более поправка равна нулю.
  • P - Атмосферное давление - приведенное к уровню моря атмосферное давление.
  • Po - Атмосферное давление - измеренное на уровне метеостанции атмосферное давление.
  • Tmin - Минимальная температура - минимум температуры воздуха на высоте 2 м над землей.
  • Tmax - Максимальная температура - максимум температуры воздуха на высоте 2 м над землей.
  • R - Количество осадков - Количество выпавших осадков за период времени, мм. При наведении курсора мыши на число - период времени, за который выпало указанное количество осадков.
  • R24 - Количество осадков - Количество выпавших осадков за 24 часа, мм.
  • S - Снежный покров - Высота снежного покрова, см. При наведении курсора мыши на число - состояние снежного покрова и степень покрытия местности в баллах.